Change the Weather History Date:

Thursday, October 18, 2012

  Actual Average Record
Temperature  
Mean Temperature 58 °F -  
Max Temperature 77 °F 58 °F 82 °F (2004)
Min Temperature 39 °F 33 °F 35 °F (2001)
Degree Days  
Heating Degree Days 7    
Growing Degree Days 8 (Base 50)    
Moisture  
Dew Point 40 °F    
Average Humidity 54    
Maximum Humidity 93    
Minimum Humidity 14    
Precipitation  
Precipitation 0.00 in - - ()
Sea Level Pressure  
Sea Level Pressure 30.21 in    
Wind  
Wind Speed 4 mph ()    
Max Wind Speed 13 mph    
Max Gust Speed -    
Visibility 7.4 miles    
Events      
Averages and records for this station are not official NWS values.
T = Trace of Precipitation, MM = Missing Value Source: Averaged Metar Reports

Daily Weather History Graph

Daily Weather History Graph

Search for Another Location

Airport or City:

Trip Planner

Search our weather history database for the weather conditions in past years. The results will help you decide how hot, cold, wet, or windy it might be!

Date:

Astronomy

Oct. 18, 2012 Rise Set
Actual Time 6:50 AM EEST 5:55 PM EEST
Civil Twilight 6:23 AM EEST 6:22 PM EEST
Nautical Twilight 5:52 AM EEST 6:52 PM EEST
Astronomical Twilight 5:21 AM EEST 7:23 PM EEST
Moon 10:07 AM EEST (10/18) 8:10 PM EEST (10/18)
Length of Visible Light 11h 58m
Length of Day
11h 04m
Waxing Crescent, 12% of the Moon is Illuminated
Oct 18
Waxing Crescent
Oct 22
First Quarter
Oct 29
Full
Nov 7
Last Quarter
Nov 14
New

Hourly Weather History & Observations

Time (EEST) Temp. Windchill Dew Point Humidity Pressure Visibility Wind Dir Wind Speed Gust Speed Precip Events Conditions
12:20 AM 53.6 °F - 39.2 °F 58% 30.24 in - ESE 3.5 mph - N/A   Clear
12:50 AM 46.4 °F - 39.2 °F 76% 30.24 in - Calm Calm - N/A   Clear
1:20 AM 48.2 °F - 39.2 °F 71% 30.24 in - Variable 2.3 mph - N/A   Clear
1:50 AM 46.4 °F - 39.2 °F 76% 30.24 in - Calm Calm - N/A   Clear
2:20 AM 44.6 °F - 41.0 °F 87% 30.24 in - ENE 1.2 mph - N/A   Clear
3:00 AM 46 °F - 39 °F 70%  in 12 mi NE 4.6 mph - -  
3:20 AM 46.4 °F - 39.2 °F 76% 30.24 in - Variable 1.2 mph - N/A   Clear
3:50 AM 48.2 °F - 39.2 °F 71% 30.24 in - NE 5.8 mph - N/A   Clear
4:20 AM 44.6 °F - 39.2 °F 81% 30.24 in - Calm Calm - N/A   Clear
4:50 AM 42.8 °F - 37.4 °F 81% 30.24 in - Calm Calm - N/A   Clear
5:20 AM 42.8 °F - 39.2 °F 87% 30.24 in - Calm Calm - N/A   Clear
5:50 AM 42.8 °F - 37.4 °F 81% 30.27 in - Calm Calm - N/A   Clear
6:20 AM 41.0 °F 39.0 °F 37.4 °F 87% 30.24 in - NE 3.5 mph - N/A   Clear
6:50 AM 41.0 °F - 39.2 °F 93% 30.27 in - NNE 1.2 mph - N/A   Clear
7:20 AM 41.0 °F - 39.2 °F 93% 30.27 in - East 2.3 mph - N/A   Clear
7:50 AM 46.4 °F - 42.8 °F 87% 30.27 in - Calm Calm - N/A   Clear
8:20 AM 50.0 °F - 42.8 °F 76% 30.27 in - North 4.6 mph - N/A   Clear
8:50 AM 55.4 °F - 44.6 °F 67% 30.27 in - Variable 3.5 mph - N/A   Clear
9:00 AM 55 °F - 44 °F 56%  in 12 mi North 3.5 mph - -  
9:20 AM 59.0 °F - 44.6 °F 59% 30.27 in - North 4.6 mph - N/A   Clear
9:50 AM 62.6 °F - 44.6 °F 52% 30.24 in - NNE 4.6 mph - N/A   Clear
10:20 AM 66.2 °F - 41.0 °F 40% 30.24 in - NNE 10.4 mph - N/A   Clear
10:50 AM 68.0 °F - 39.2 °F 35% 30.24 in - NE 11.5 mph - N/A   Clear
11:20 AM 69.8 °F - 39.2 °F 33% 30.24 in - NE 10.4 mph - N/A   Clear
11:50 AM 69.8 °F - 39.2 °F 33% 30.24 in - NE 9.2 mph - N/A   Clear
12:20 PM 71.6 °F - 39.2 °F 31% 30.21 in 6.2 mi NE 11.5 mph - N/A   Partly Cloudy
12:50 PM 73.4 °F - 39.2 °F 29% 30.21 in 6.2 mi NNE 11.5 mph - N/A   Partly Cloudy
1:20 PM 73.4 °F - 37.4 °F 27% 30.18 in 6.2 mi NNE 10.4 mph - N/A   Partly Cloudy
1:50 PM 75.2 °F - 35.6 °F 24% 30.18 in 6.2 mi NNE 9.2 mph - N/A   Partly Cloudy
2:20 PM 75.2 °F - 39.2 °F 27% 30.18 in 6.2 mi NNE 12.7 mph - N/A   Partly Cloudy
2:50 PM 77.0 °F - 37.4 °F 24% 30.18 in 6.2 mi NE 9.2 mph - N/A   Partly Cloudy
3:00 PM 76 °F - 36 °F 14%  in 12 mi NE 9.2 mph - -   Scattered Clouds
3:20 PM 77.0 °F - 35.6 °F 22% 30.15 in 6.2 mi NE 11.5 mph - N/A   Partly Cloudy
3:50 PM 77.0 °F - 35.6 °F 22% 30.15 in 6.2 mi NE 12.7 mph - N/A   Partly Cloudy
4:20 PM 77.0 °F - 35.6 °F 22% 30.15 in 6.2 mi ENE 11.5 mph - N/A   Partly Cloudy
4:50 PM 75.2 °F - 35.6 °F 24% 30.15 in 6.2 mi NE 11.5 mph - N/A   Partly Cloudy
5:20 PM 73.4 °F - 37.4 °F 27% 30.15 in 6.2 mi ENE 9.2 mph - N/A   Partly Cloudy
5:50 PM 68.0 °F - 37.4 °F 33% 30.15 in 6.2 mi ENE 6.9 mph - N/A   Partly Cloudy
6:20 PM 68.0 °F - 39.2 °F 35% 30.15 in 6.2 mi North 4.6 mph - N/A   Partly Cloudy
6:50 PM 62.6 °F - 39.2 °F 42% 30.15 in 6.2 mi NNE 2.3 mph - N/A   Partly Cloudy
7:20 PM 60.8 °F - 42.8 °F 52% 30.15 in 6.2 mi Calm Calm - N/A   Partly Cloudy
7:50 PM 57.2 °F - 42.8 °F 59% 30.18 in - East 4.6 mph - N/A   Clear
8:20 PM 62.6 °F - 41.0 °F 45% 30.18 in 6.2 mi ENE 5.8 mph - N/A   Scattered Clouds
8:50 PM 62.6 °F - 41.0 °F 45% 30.18 in - East 4.6 mph - N/A   Clear
9:00 PM 62 °F - 41 °F 35%  in 12 mi East 4.6 mph - -   Partly Cloudy
9:20 PM 59.0 °F - 41.0 °F 51% 30.18 in - Calm Calm - N/A   Clear
9:50 PM 57.2 °F - 41.0 °F 55% 30.21 in - Variable 1.2 mph - N/A   Clear
10:20 PM 55.4 °F - 41.0 °F 58% 30.21 in - NNW 2.3 mph - N/A   Clear
10:50 PM 53.6 °F - 41.0 °F 62% 30.21 in - WSW 1.2 mph - N/A   Clear
11:20 PM 50.0 °F - 42.8 °F 76% 30.21 in - Calm Calm - N/A   Clear
11:50 PM 50.0 °F - 42.8 °F 76% 30.21 in - Calm Calm - N/A   Clear